Weather History for HTSO - December, 2013

Change the Weather History Date:

Tuesday, December 3, 2013

  Actual Average Record
Temperature  
Mean Temperature 72 °F -  
Max Temperature 82 °F - - ()
Min Temperature 62 °F - - ()
Cooling Degree Days 7    
Growing Degree Days 22 (Base 50)    
Moisture  
Dew Point 62 °F    
Average Humidity 65    
Maximum Humidity 83    
Minimum Humidity 40    
Precipitation  
Precipitation 0.00 in 0.28 in - ()
Sea Level Pressure  
Sea Level Pressure 30.06 in    
Wind  
Wind Speed 6 mph ()    
Max Wind Speed 15 mph    
Max Gust Speed -    
Visibility 9.2 miles    
Events      
T = Trace of Precipitation, MM = Missing Value Source: Averaged Metar Reports

Daily Weather History Graph

Daily Weather History Graph

Search for Another Location

Airport or City:

Trip Planner

Search our weather history database for the weather conditions in past years. The results will help you decide how hot, cold, wet, or windy it might be!

Date:

Astronomy

Dec. 03, 2013 Rise Set
Actual Time 6:06 AM EAT 6:48 PM EAT
Civil Twilight 5:43 AM EAT 7:11 PM EAT
Nautical Twilight 5:16 AM EAT 7:38 PM EAT
Astronomical Twilight 4:49 AM EAT 8:06 PM EAT
Moon 6:21 AM EAT (12/3) 7:23 PM EAT (12/3)
Length of Visible Light 13h 28m
Length of Day
12h 42m
New Moon, 0% of the Moon is Illuminated
Dec 3
New Moon
Dec 9
First Quarter
Dec 17
Full
Dec 25
Last Quarter
Jan 1
New

Hourly Weather History & Observations

Time (EAT) Temp. Heat Index Dew Point Humidity Pressure Visibility Wind Dir Wind Speed Gust Speed Precip Events Conditions
12:00 AM 60 °F - - %  in 19 mi NE 9.2 mph - -   Scattered Clouds
12:00 AM 69.8 °F - 59.0 °F 68% 30.09 in 6.2 mi NE 9.2 mph - N/A   Partly Cloudy
1:00 AM 69.8 °F - 59.0 °F 68% 30.09 in 6.2 mi Calm Calm - N/A   Partly Cloudy
2:00 AM 68.0 °F - 59.0 °F 73% 30.09 in 6.2 mi Calm Calm - N/A   Partly Cloudy
5:00 AM 68.0 °F - 60.8 °F 78% 30.06 in 6.2 mi Calm Calm - N/A   Partly Cloudy
6:00 AM 67 °F - 60 °F 73%  in 19 mi Calm Calm - -   Scattered Clouds
6:00 AM 68.0 °F - 60.8 °F 78% 30.06 in 6.2 mi Calm Calm - N/A   Partly Cloudy
7:00 AM 68.0 °F - 62.6 °F 83% 30.09 in 6.2 mi NE 5.8 mph - N/A   Partly Cloudy
8:00 AM 69.8 °F - 64.4 °F 83% 30.09 in 6.2 mi NE 5.8 mph - N/A   Partly Cloudy
9:00 AM 73 °F - 65 °F 70%  in 19 mi East 11.5 mph - -   Partly Cloudy
9:00 AM 73.4 °F - 64.4 °F 73% 30.09 in 6.2 mi East 11.5 mph - N/A   Partly Cloudy
10:00 AM 75.2 °F - 64.4 °F 69% 30.09 in 6.2 mi East 9.2 mph - N/A   Partly Cloudy
11:00 AM 77.0 °F - 62.6 °F 61% 30.09 in 6.2 mi East 11.5 mph - N/A   Partly Cloudy
12:00 PM 79 °F - 62 °F 47%  in 19 mi East 11.5 mph - -   Mostly Cloudy
12:00 PM 78.8 °F - 62.6 °F 57% 30.09 in 6.2 mi East 11.5 mph - N/A   Partly Cloudy
1:00 PM 80.6 °F 81.8 °F 62.6 °F 54% 30.06 in 6.2 mi ENE 5.8 mph - N/A   Partly Cloudy
2:00 PM 82.4 °F 83.4 °F 62.6 °F 51% 30.06 in 6.2 mi ESE 8.1 mph - N/A   Partly Cloudy
3:00 PM 82 °F - 62 °F 41%  in 19 mi ESE 10.4 mph - -   Mostly Cloudy
3:00 PM 77.0 °F - 64.4 °F 65% 30.04 in 6.2 mi ESE 10.4 mph - N/A   Partly Cloudy
4:00 PM 77.0 °F - 64.4 °F 65% 30.01 in 6.2 mi East 15.0 mph - N/A   Partly Cloudy
5:00 PM 82.4 °F 82.9 °F 60.8 °F 48% 30.01 in 6.2 mi East 12.7 mph - N/A   Partly Cloudy
6:00 PM 82 °F - 62 °F 40%  in 19 mi East 11.5 mph - -   Partly Cloudy
6:00 PM 82.4 °F 82.9 °F 60.8 °F 48% 30.01 in 6.2 mi East 11.5 mph - N/A   Partly Cloudy
8:00 PM 75.2 °F - 64.4 °F 69% 30.04 in 6.2 mi Calm Calm - N/A   Partly Cloudy
10:00 PM 73.4 °F - 66.2 °F 78% 30.01 in 6.2 mi Calm Calm - N/A   Partly Cloudy
11:00 PM 73.4 °F - 64.4 °F 73% 30.06 in 6.2 mi Calm Calm - N/A   Partly Cloudy